Year,Month,Day,Hour,Minute,Value (Times are PST for temperature in C)
2015,09,29,00,00,8.00
2015,09,29,00,01,7.90
2015,09,29,00,02,7.90
2015,09,29,00,03,7.90
2015,09,29,00,04,7.90
2015,09,29,00,05,7.90
2015,09,29,00,06,7.90
2015,09,29,00,07,7.90
2015,09,29,00,08,7.90
2015,09,29,00,09,7.90
2015,09,29,00,10,7.90
2015,09,29,00,11,7.90
2015,09,29,00,12,7.90
2015,09,29,00,17,7.90
2015,09,29,00,18,8.00
2015,09,29,00,19,8.00
2015,09,29,00,20,7.90
2015,09,29,00,21,7.90
2015,09,29,00,22,7.90
2015,09,29,00,23,7.90
2015,09,29,00,24,7.80
2015,09,29,00,25,7.80
2015,09,29,00,26,7.80
2015,09,29,00,27,7.80
2015,09,29,00,28,7.80
2015,09,29,00,29,7.80
2015,09,29,00,30,7.80
2015,09,29,00,31,7.80
2015,09,29,00,32,7.80
2015,09,29,00,33,7.80
2015,09,29,00,34,7.80
2015,09,29,00,35,7.80
2015,09,29,00,36,7.70
2015,09,29,00,37,7.70
2015,09,29,00,38,7.70
2015,09,29,00,39,7.70
2015,09,29,00,40,7.70
2015,09,29,00,41,7.70
2015,09,29,00,42,7.70
2015,09,29,00,43,7.70
2015,09,29,00,44,7.70
2015,09,29,00,45,7.80
2015,09,29,00,46,7.80
2015,09,29,00,47,7.80
2015,09,29,00,48,7.80
2015,09,29,00,49,7.80
2015,09,29,00,50,7.80
2015,09,29,00,51,7.80
2015,09,29,00,52,7.80
2015,09,29,00,53,7.80
2015,09,29,00,54,7.80
2015,09,29,00,55,7.80
2015,09,29,00,56,7.80
2015,09,29,00,57,7.80
2015,09,29,00,58,7.80
2015,09,29,00,59,7.80
2015,09,29,01,00,7.80
2015,09,29,01,01,7.80
2015,09,29,01,02,7.80
2015,09,29,01,03,7.80
2015,09,29,01,04,7.70
2015,09,29,01,05,7.70
2015,09,29,01,06,7.70
2015,09,29,01,07,7.70
2015,09,29,01,08,7.70
2015,09,29,01,09,7.70
2015,09,29,01,10,7.70
2015,09,29,01,11,7.70
2015,09,29,01,12,7.70
2015,09,29,01,13,7.70
2015,09,29,01,14,7.70
2015,09,29,01,15,7.70
2015,09,29,01,16,7.70
2015,09,29,01,17,7.70
2015,09,29,01,18,7.70
2015,09,29,01,19,7.70
2015,09,29,01,20,7.70
2015,09,29,01,21,7.70
2015,09,29,01,22,7.70
2015,09,29,01,23,7.70
2015,09,29,01,24,7.70
2015,09,29,01,25,7.70
2015,09,29,01,26,7.70
2015,09,29,01,27,7.70
2015,09,29,01,28,7.70
2015,09,29,01,29,7.60
2015,09,29,01,30,7.60
2015,09,29,01,31,7.60
2015,09,29,01,32,7.60
2015,09,29,01,33,7.70
2015,09,29,01,34,7.60
2015,09,29,01,35,7.60
2015,09,29,01,36,7.60
2015,09,29,01,37,7.60
2015,09,29,01,38,7.60
2015,09,29,01,39,7.50
2015,09,29,01,40,7.50
2015,09,29,01,41,7.50
2015,09,29,01,42,7.60
2015,09,29,01,43,7.60
2015,09,29,01,44,7.60
2015,09,29,01,45,7.60
2015,09,29,01,46,7.60
2015,09,29,01,47,7.60
2015,09,29,01,48,7.50
2015,09,29,01,49,7.50
2015,09,29,01,50,7.40
2015,09,29,01,51,7.40
2015,09,29,01,52,7.40
2015,09,29,01,53,7.40
2015,09,29,01,54,7.40
2015,09,29,01,55,7.40
2015,09,29,01,56,7.30
2015,09,29,01,57,7.30
2015,09,29,01,58,7.30
2015,09,29,01,59,7.40
2015,09,29,02,00,7.40
2015,09,29,02,01,7.40
2015,09,29,02,02,7.40
2015,09,29,02,03,7.40
2015,09,29,02,04,7.40
2015,09,29,02,05,7.30
2015,09,29,02,06,7.30
2015,09,29,02,07,7.30
2015,09,29,02,08,7.30
2015,09,29,02,09,7.30
2015,09,29,02,10,7.30
2015,09,29,02,11,7.30
2015,09,29,02,12,7.30
2015,09,29,02,13,7.30
2015,09,29,02,14,7.30
2015,09,29,02,15,7.30
2015,09,29,02,16,7.30
2015,09,29,02,17,7.30
2015,09,29,02,18,7.20
2015,09,29,02,19,7.20
2015,09,29,02,20,7.20
2015,09,29,02,21,7.20
2015,09,29,02,22,7.20
2015,09,29,02,23,7.20
2015,09,29,02,24,7.20
2015,09,29,02,25,7.20
2015,09,29,02,26,7.20
2015,09,29,02,27,7.20
2015,09,29,02,28,7.20
2015,09,29,02,29,7.20
2015,09,29,02,30,7.20
2015,09,29,02,31,7.10
2015,09,29,02,32,7.10
2015,09,29,02,33,7.10
2015,09,29,02,34,7.20
2015,09,29,02,35,7.20
2015,09,29,02,36,7.20
2015,09,29,02,37,7.20
2015,09,29,02,38,7.20
2015,09,29,02,39,7.20
2015,09,29,02,40,7.20
2015,09,29,02,41,7.20
2015,09,29,02,42,7.20
2015,09,29,02,43,7.10
2015,09,29,02,44,7.10
2015,09,29,02,45,7.10
2015,09,29,02,46,7.10
2015,09,29,02,47,7.20
2015,09,29,02,48,7.20
2015,09,29,02,49,7.20
2015,09,29,02,50,7.20
2015,09,29,02,51,7.20
2015,09,29,02,52,7.20
2015,09,29,02,53,7.20
2015,09,29,02,54,7.20
2015,09,29,02,55,7.20
2015,09,29,02,56,7.10
2015,09,29,02,57,7.10
2015,09,29,02,58,7.10
2015,09,29,02,59,7.10
2015,09,29,03,00,7.10
2015,09,29,03,01,7.10
2015,09,29,03,02,7.10
2015,09,29,03,03,7.10
2015,09,29,03,04,7.20
2015,09,29,03,05,7.20
2015,09,29,03,06,7.20
2015,09,29,03,07,7.10
2015,09,29,03,08,7.10
2015,09,29,03,09,7.10
2015,09,29,03,10,7.10
2015,09,29,03,11,7.00
2015,09,29,03,12,7.00
2015,09,29,03,13,7.00
2015,09,29,03,14,6.90
2015,09,29,03,15,7.00
2015,09,29,03,16,7.00
2015,09,29,03,17,7.00
2015,09,29,03,18,7.00
2015,09,29,03,19,7.00
2015,09,29,03,20,7.10
2015,09,29,03,21,7.10
2015,09,29,03,22,7.10
2015,09,29,03,23,7.10
2015,09,29,03,24,7.20
2015,09,29,03,25,7.20
2015,09,29,03,26,7.20
2015,09,29,03,27,7.20
2015,09,29,03,28,7.20
2015,09,29,03,29,7.10
2015,09,29,03,30,7.10
2015,09,29,03,31,7.10
2015,09,29,03,32,7.00
2015,09,29,03,33,7.00
2015,09,29,03,34,7.00
2015,09,29,03,35,7.00
2015,09,29,03,36,7.00
2015,09,29,03,37,7.00
2015,09,29,03,38,6.90
2015,09,29,03,39,6.90
2015,09,29,03,40,7.00
2015,09,29,03,41,7.00
2015,09,29,03,42,7.00
2015,09,29,03,43,7.00
2015,09,29,03,44,7.00
2015,09,29,03,45,7.00
2015,09,29,03,46,6.90
2015,09,29,03,47,6.90
2015,09,29,03,48,6.90
2015,09,29,03,49,6.80
2015,09,29,03,50,6.80
2015,09,29,03,51,6.80
2015,09,29,03,52,6.70
2015,09,29,03,53,6.80
2015,09,29,03,54,6.80
2015,09,29,03,55,6.80
2015,09,29,03,56,6.80
2015,09,29,03,57,6.80
2015,09,29,03,58,6.80
2015,09,29,03,59,6.80
2015,09,29,04,00,6.80
2015,09,29,04,01,6.80
2015,09,29,04,02,6.80
2015,09,29,04,03,6.80
2015,09,29,04,04,6.70
2015,09,29,04,05,6.70
2015,09,29,04,06,6.70
2015,09,29,04,07,6.70
2015,09,29,04,08,6.60
2015,09,29,04,09,6.60
2015,09,29,04,10,6.60
2015,09,29,04,11,6.60
2015,09,29,04,12,6.60
2015,09,29,04,13,6.60
2015,09,29,04,14,6.60
2015,09,29,04,15,6.60
2015,09,29,04,16,6.60
2015,09,29,04,17,6.50
2015,09,29,04,18,6.50
2015,09,29,04,19,6.50
2015,09,29,04,20,6.40
2015,09,29,04,21,6.40
2015,09,29,04,22,6.40
2015,09,29,04,23,6.40
2015,09,29,04,24,6.40
2015,09,29,04,25,6.40
2015,09,29,04,26,6.40
2015,09,29,04,27,6.40
2015,09,29,04,28,6.40
2015,09,29,04,29,6.40
2015,09,29,04,30,6.30
2015,09,29,04,31,6.30
2015,09,29,04,32,6.30
2015,09,29,04,33,6.40
2015,09,29,04,34,6.40
2015,09,29,04,35,6.40
2015,09,29,04,36,6.40
2015,09,29,04,37,6.40
2015,09,29,04,38,6.40
2015,09,29,04,39,6.40
2015,09,29,04,40,6.40
2015,09,29,04,41,6.40
2015,09,29,04,42,6.40
2015,09,29,04,43,6.40
2015,09,29,04,44,6.40
2015,09,29,04,45,6.40
2015,09,29,04,46,6.50
2015,09,29,04,47,6.50
2015,09,29,04,48,6.50
2015,09,29,04,49,6.50
2015,09,29,04,50,6.40
2015,09,29,04,51,6.40
2015,09,29,04,52,6.50
2015,09,29,04,53,6.50
2015,09,29,04,54,6.50
2015,09,29,04,55,6.60
2015,09,29,04,56,6.50
2015,09,29,04,57,6.60
2015,09,29,04,58,6.60
2015,09,29,04,59,6.50
2015,09,29,05,00,6.50
2015,09,29,05,01,6.50
2015,09,29,05,02,6.40
2015,09,29,05,03,6.40
2015,09,29,05,04,6.40
2015,09,29,05,05,6.40
2015,09,29,05,06,6.30
2015,09,29,05,07,6.40
2015,09,29,05,08,6.40
2015,09,29,05,09,6.40
2015,09,29,05,10,6.40
2015,09,29,05,11,6.30
2015,09,29,05,12,6.30
2015,09,29,05,13,6.30
2015,09,29,05,14,6.30
2015,09,29,05,15,6.20
2015,09,29,05,16,6.20
2015,09,29,05,17,6.20
2015,09,29,05,18,6.20
2015,09,29,05,19,6.20
2015,09,29,05,20,6.20
2015,09,29,05,21,6.20
2015,09,29,05,22,6.20
2015,09,29,05,23,6.20
2015,09,29,05,24,6.30
2015,09,29,05,25,6.30
2015,09,29,05,26,6.30
2015,09,29,05,27,6.30
2015,09,29,05,28,6.30
2015,09,29,05,29,6.30
2015,09,29,05,30,6.20
2015,09,29,05,31,6.20
2015,09,29,05,32,6.20
2015,09,29,05,33,6.20
2015,09,29,05,34,6.10
2015,09,29,05,35,6.10
2015,09,29,05,36,6.10
2015,09,29,05,37,6.00
2015,09,29,05,38,6.00
2015,09,29,05,39,6.00
2015,09,29,05,40,5.90
2015,09,29,05,41,5.90
2015,09,29,05,42,5.90
2015,09,29,05,43,5.90
2015,09,29,05,44,5.80
2015,09,29,05,45,5.80
2015,09,29,05,46,5.80
2015,09,29,05,47,5.80
2015,09,29,05,48,5.80
2015,09,29,05,49,5.80
2015,09,29,05,50,5.80
2015,09,29,05,51,5.80
2015,09,29,05,52,5.80
2015,09,29,05,53,5.80
2015,09,29,05,54,5.80
2015,09,29,05,55,5.90
2015,09,29,05,56,5.90
2015,09,29,05,57,5.90
2015,09,29,05,58,6.00
2015,09,29,05,59,6.00
2015,09,29,06,00,6.10
2015,09,29,06,01,6.00
2015,09,29,06,02,6.00
2015,09,29,06,03,6.00
2015,09,29,06,04,6.00
2015,09,29,06,05,5.90
2015,09,29,06,06,5.90
2015,09,29,06,07,5.90
2015,09,29,06,08,5.90
2015,09,29,06,09,5.90
2015,09,29,06,10,5.90
2015,09,29,06,11,5.90
2015,09,29,06,12,6.00
2015,09,29,06,13,6.00
2015,09,29,06,14,6.10
2015,09,29,06,15,6.20
2015,09,29,06,16,6.20
2015,09,29,06,17,6.30
2015,09,29,06,18,6.30
2015,09,29,06,19,6.30
2015,09,29,06,20,6.30
2015,09,29,06,21,6.30
2015,09,29,06,22,6.20
2015,09,29,06,23,6.20
2015,09,29,06,24,6.20
2015,09,29,06,25,6.20
2015,09,29,06,26,6.20
2015,09,29,06,27,6.20
2015,09,29,06,28,6.20
2015,09,29,06,29,6.20
2015,09,29,06,30,6.10
2015,09,29,06,31,6.10
2015,09,29,06,32,6.10
2015,09,29,06,33,6.00
2015,09,29,06,34,6.00
2015,09,29,06,35,5.90
2015,09,29,06,36,5.90
2015,09,29,06,37,5.80
2015,09,29,06,38,5.80
2015,09,29,06,39,5.80
2015,09,29,06,40,5.80
2015,09,29,06,41,5.80
2015,09,29,06,42,5.70
2015,09,29,06,43,5.70
2015,09,29,06,44,5.80
2015,09,29,06,45,5.80
2015,09,29,06,46,6.00
2015,09,29,06,47,6.10
2015,09,29,06,48,6.10
2015,09,29,06,49,6.10
2015,09,29,06,50,6.10
2015,09,29,06,51,6.20
2015,09,29,06,52,6.20
2015,09,29,06,53,6.10
2015,09,29,06,54,6.10
2015,09,29,06,55,6.00
2015,09,29,06,56,5.90
2015,09,29,06,57,5.80
2015,09,29,06,58,5.80
2015,09,29,06,59,5.90
2015,09,29,07,00,5.90
2015,09,29,07,01,5.80
2015,09,29,07,02,5.80
2015,09,29,07,03,5.70
2015,09,29,07,04,5.70
2015,09,29,07,05,5.70
2015,09,29,07,06,5.70
2015,09,29,07,07,5.70
2015,09,29,07,08,5.70
2015,09,29,07,09,5.70
2015,09,29,07,10,5.70
2015,09,29,07,11,5.70
2015,09,29,07,12,5.70
2015,09,29,07,13,5.70
2015,09,29,07,14,5.70
2015,09,29,07,15,5.70
2015,09,29,07,16,5.70
2015,09,29,07,17,5.70
2015,09,29,07,18,5.80
2015,09,29,07,19,5.80
2015,09,29,07,20,5.80
2015,09,29,07,21,5.80
2015,09,29,07,22,5.80
2015,09,29,07,23,5.80
2015,09,29,07,24,5.90
2015,09,29,07,25,5.90
2015,09,29,07,26,5.80
2015,09,29,07,27,5.80
2015,09,29,07,28,5.70
2015,09,29,07,29,5.70
2015,09,29,07,30,5.60
2015,09,29,07,31,5.60
2015,09,29,07,32,5.50
2015,09,29,07,33,5.50
2015,09,29,07,34,5.50
2015,09,29,07,35,5.40
2015,09,29,07,36,5.40
2015,09,29,07,37,5.40
2015,09,29,07,38,5.50
2015,09,29,07,39,5.50
2015,09,29,07,40,5.50
2015,09,29,07,41,5.60
2015,09,29,07,42,5.60
2015,09,29,07,43,5.60
2015,09,29,07,44,5.60
2015,09,29,07,45,5.60
2015,09,29,07,46,5.70
2015,09,29,07,47,5.70
2015,09,29,07,48,5.80
2015,09,29,07,49,5.90
2015,09,29,07,50,5.90
2015,09,29,07,51,5.90
2015,09,29,07,52,5.90
2015,09,29,07,53,5.90
2015,09,29,07,54,5.80
2015,09,29,07,55,5.80
2015,09,29,07,56,5.80
2015,09,29,07,57,5.70
2015,09,29,07,58,5.70
2015,09,29,07,59,5.70
2015,09,29,08,00,5.70
2015,09,29,08,01,5.70
2015,09,29,08,02,5.70
2015,09,29,08,03,5.70
2015,09,29,08,04,5.70
2015,09,29,08,05,5.70
2015,09,29,08,06,5.70
2015,09,29,08,07,5.70
2015,09,29,08,08,5.70
2015,09,29,08,09,5.70
2015,09,29,08,10,5.70
2015,09,29,08,11,5.70
2015,09,29,08,12,5.70
2015,09,29,08,13,5.80
2015,09,29,08,14,5.80
2015,09,29,08,15,5.80
2015,09,29,08,16,5.90
2015,09,29,08,17,5.90
2015,09,29,08,18,5.90
2015,09,29,08,19,5.90
2015,09,29,08,20,5.90
2015,09,29,08,21,5.90
2015,09,29,08,22,5.90
2015,09,29,08,23,5.90
2015,09,29,08,24,5.90
2015,09,29,08,25,5.90
2015,09,29,08,26,5.90
2015,09,29,08,27,6.00
2015,09,29,08,28,6.00
2015,09,29,08,29,6.10
2015,09,29,08,30,6.10
2015,09,29,08,31,6.20
2015,09,29,08,32,6.20
2015,09,29,08,33,6.20
2015,09,29,08,34,6.30
2015,09,29,08,35,6.30
2015,09,29,08,36,6.40
2015,09,29,08,37,6.40
2015,09,29,08,38,6.40
2015,09,29,08,39,6.40
2015,09,29,08,40,6.40
2015,09,29,08,41,6.40
2015,09,29,08,42,6.40
2015,09,29,08,43,6.40
2015,09,29,08,44,6.40
2015,09,29,08,45,6.50
2015,09,29,08,46,6.50
2015,09,29,08,47,6.50
2015,09,29,08,48,6.60
2015,09,29,08,49,6.60
2015,09,29,08,50,6.60
2015,09,29,08,51,6.60
2015,09,29,08,52,6.60
2015,09,29,08,53,6.60
2015,09,29,08,54,6.70
2015,09,29,08,55,6.70
2015,09,29,08,56,6.80
2015,09,29,08,57,6.90
2015,09,29,08,58,7.00
2015,09,29,08,59,7.20
2015,09,29,09,00,7.30
2015,09,29,09,01,7.50
2015,09,29,09,02,7.70
2015,09,29,09,03,7.80
2015,09,29,09,04,7.90
2015,09,29,09,05,8.00
2015,09,29,09,06,8.10
2015,09,29,09,07,8.10
2015,09,29,09,08,8.20
2015,09,29,09,09,8.20
2015,09,29,09,10,8.30
2015,09,29,09,11,8.30
2015,09,29,09,12,8.40
2015,09,29,09,13,8.50
2015,09,29,09,14,8.50
2015,09,29,09,15,8.60
2015,09,29,09,16,8.70
2015,09,29,09,17,8.70
2015,09,29,09,18,8.80
2015,09,29,09,19,8.90
2015,09,29,09,20,8.90
2015,09,29,09,21,9.00
2015,09,29,09,22,9.10
2015,09,29,09,23,9.20
2015,09,29,09,24,9.30
2015,09,29,09,25,9.40
2015,09,29,09,26,9.50
2015,09,29,09,27,9.60
2015,09,29,09,28,9.70
2015,09,29,09,29,9.80
2015,09,29,09,30,9.90
2015,09,29,09,31,10.00
2015,09,29,09,32,10.10
2015,09,29,09,33,10.20
2015,09,29,09,34,10.30
2015,09,29,09,35,10.40
2015,09,29,09,36,10.50
2015,09,29,09,37,10.50
2015,09,29,09,38,10.60
2015,09,29,09,39,10.60
2015,09,29,09,40,10.70
2015,09,29,09,41,10.70
2015,09,29,09,42,10.80
2015,09,29,09,43,10.80
2015,09,29,09,44,10.90
2015,09,29,09,45,10.90
2015,09,29,09,46,10.90
2015,09,29,09,47,11.00
2015,09,29,09,48,11.00
2015,09,29,09,49,11.10
2015,09,29,09,50,11.10
2015,09,29,09,51,11.20
2015,09,29,09,52,11.30
2015,09,29,09,53,11.40
2015,09,29,09,54,11.50
2015,09,29,09,55,11.50
2015,09,29,09,56,11.60
2015,09,29,09,57,11.60
2015,09,29,09,58,11.70
2015,09,29,09,59,11.80
2015,09,29,10,00,11.90
2015,09,29,10,01,12.00
2015,09,29,10,02,12.10
2015,09,29,10,03,12.20
2015,09,29,10,04,12.30
2015,09,29,10,05,12.30
2015,09,29,10,06,12.40
2015,09,29,10,07,12.40
2015,09,29,10,08,12.50
2015,09,29,10,09,12.60
2015,09,29,10,10,12.60
2015,09,29,10,11,12.60
2015,09,29,10,12,12.70
2015,09,29,10,13,12.70
2015,09,29,10,14,12.80
2015,09,29,10,15,12.80
2015,09,29,10,16,12.90
2015,09,29,10,17,13.00
2015,09,29,10,18,13.10
2015,09,29,10,19,13.10
2015,09,29,10,20,13.20
2015,09,29,10,21,13.30
2015,09,29,10,22,13.30
2015,09,29,10,23,13.40
2015,09,29,10,24,13.50
2015,09,29,10,25,13.60
2015,09,29,10,26,13.70
2015,09,29,10,27,13.80
2015,09,29,10,28,13.90
2015,09,29,10,29,13.90
2015,09,29,10,30,14.00
2015,09,29,10,31,14.10
2015,09,29,10,32,14.20
2015,09,29,10,33,14.20
2015,09,29,10,34,14.30
2015,09,29,10,35,14.40
2015,09,29,10,36,14.50
2015,09,29,10,37,14.60
2015,09,29,10,38,14.70
2015,09,29,10,39,14.80
2015,09,29,10,40,14.90
2015,09,29,10,41,14.90
2015,09,29,10,42,15.00
2015,09,29,10,43,15.10
2015,09,29,10,44,15.20
2015,09,29,10,45,15.20
2015,09,29,10,46,15.20
2015,09,29,10,47,15.20
2015,09,29,10,48,15.20
2015,09,29,10,49,15.20
2015,09,29,10,50,15.20
2015,09,29,10,51,15.20
2015,09,29,10,52,15.30
2015,09,29,10,53,15.30
2015,09,29,10,54,15.40
2015,09,29,10,55,15.40
2015,09,29,10,56,15.50
2015,09,29,10,57,15.60
2015,09,29,10,58,15.60
2015,09,29,10,59,15.60
2015,09,29,11,00,15.60
2015,09,29,11,01,15.60
2015,09,29,11,02,15.60
2015,09,29,11,03,15.50
2015,09,29,11,04,15.50
2015,09,29,11,05,15.50
2015,09,29,11,06,15.50
2015,09,29,11,07,15.50
2015,09,29,11,08,15.60
2015,09,29,11,09,15.60
2015,09,29,11,10,15.70
2015,09,29,11,11,15.80
2015,09,29,11,12,16.00
2015,09,29,11,13,16.00
2015,09,29,11,14,16.10
2015,09,29,11,15,16.10
2015,09,29,11,16,16.20
2015,09,29,11,17,16.20
2015,09,29,11,18,16.30
2015,09,29,11,19,16.20
2015,09,29,11,20,16.20
2015,09,29,11,21,16.20
2015,09,29,11,22,16.20
2015,09,29,11,23,16.20
2015,09,29,11,24,16.10
2015,09,29,11,25,16.10
2015,09,29,11,26,16.10
2015,09,29,11,27,16.10
2015,09,29,11,28,16.10
2015,09,29,11,29,16.10
2015,09,29,11,30,16.20
2015,09,29,11,31,16.20
2015,09,29,11,32,16.30
2015,09,29,11,33,16.30
2015,09,29,11,34,16.30
2015,09,29,11,35,16.30
2015,09,29,11,36,16.20
2015,09,29,11,37,16.20
2015,09,29,11,38,16.20
2015,09,29,11,39,16.20
2015,09,29,11,40,16.20
2015,09,29,11,41,16.10
2015,09,29,11,42,16.10
2015,09,29,11,43,16.10
2015,09,29,11,44,16.00
2015,09,29,11,45,16.00
2015,09,29,11,46,16.00
2015,09,29,11,47,16.00
2015,09,29,11,48,16.00
2015,09,29,11,49,16.00
2015,09,29,11,50,15.90
2015,09,29,11,51,15.90
2015,09,29,11,52,16.00
2015,09,29,11,53,16.00
2015,09,29,11,54,16.00
2015,09,29,11,55,16.00
2015,09,29,11,56,16.10
2015,09,29,11,57,16.10
2015,09,29,11,58,16.10
2015,09,29,11,59,16.10
2015,09,29,12,00,16.00
2015,09,29,12,01,16.00
2015,09,29,12,02,16.00
2015,09,29,12,03,16.10
2015,09,29,12,04,16.10
2015,09,29,12,05,16.10
2015,09,29,12,06,16.20
2015,09,29,12,07,16.20
2015,09,29,12,08,16.30
2015,09,29,12,09,16.30
2015,09,29,12,10,16.40
2015,09,29,12,11,16.40
2015,09,29,12,12,16.50
2015,09,29,12,13,16.50
2015,09,29,12,14,16.60
2015,09,29,12,15,16.60
2015,09,29,12,16,16.70
2015,09,29,12,17,16.80
2015,09,29,12,18,16.90
2015,09,29,12,19,17.00
2015,09,29,12,20,17.00
2015,09,29,12,21,17.10
2015,09,29,12,22,17.20
2015,09,29,12,23,17.30
2015,09,29,12,24,17.40
2015,09,29,12,25,17.40
2015,09,29,12,26,17.50
2015,09,29,12,27,17.60
2015,09,29,12,28,17.60
2015,09,29,12,29,17.60
2015,09,29,12,30,17.60
2015,09,29,12,31,17.60
2015,09,29,12,32,17.60
2015,09,29,12,33,17.60
2015,09,29,12,34,17.50
2015,09,29,12,35,17.40
2015,09,29,12,36,17.40
2015,09,29,12,37,17.40
2015,09,29,12,38,17.30
2015,09,29,12,39,17.30
2015,09,29,12,40,17.30
2015,09,29,12,41,17.20
2015,09,29,12,42,17.20
2015,09,29,12,43,17.20
2015,09,29,12,44,17.20
2015,09,29,12,45,17.20
2015,09,29,12,46,17.10
2015,09,29,12,47,17.20
2015,09,29,12,48,17.20
2015,09,29,12,49,17.20
2015,09,29,12,50,17.30
2015,09,29,12,51,17.30
2015,09,29,12,52,17.30
2015,09,29,12,53,17.30
2015,09,29,12,54,17.30
2015,09,29,12,55,17.30
2015,09,29,12,56,17.40
2015,09,29,12,57,17.40
2015,09,29,12,58,17.40
2015,09,29,12,59,17.40
2015,09,29,13,00,17.40
2015,09,29,13,01,17.40
2015,09,29,13,02,17.50
2015,09,29,13,03,17.50
2015,09,29,13,04,17.50
2015,09,29,13,05,17.50
2015,09,29,13,06,17.40
2015,09,29,13,07,17.40
2015,09,29,13,08,17.40
2015,09,29,13,09,17.40
2015,09,29,13,10,17.40
2015,09,29,13,11,17.30
2015,09,29,13,12,17.30
2015,09,29,13,13,17.30
2015,09,29,13,14,17.30
2015,09,29,13,15,17.40
2015,09,29,13,16,17.40
2015,09,29,13,17,17.40
2015,09,29,13,18,17.40
2015,09,29,13,19,17.50
2015,09,29,13,20,17.50
2015,09,29,13,21,17.60
2015,09,29,13,22,17.60
2015,09,29,13,23,17.60
2015,09,29,13,24,17.70
2015,09,29,13,25,17.70
2015,09,29,13,26,17.80
2015,09,29,13,27,17.80
2015,09,29,13,28,17.90
2015,09,29,13,29,18.00
2015,09,29,13,30,18.00
2015,09,29,13,31,18.10
2015,09,29,13,32,18.10
2015,09,29,13,33,18.00
2015,09,29,13,34,17.90
2015,09,29,13,35,17.90
2015,09,29,13,36,17.90
2015,09,29,13,37,17.90
2015,09,29,13,38,17.80
2015,09,29,13,39,17.80
2015,09,29,13,40,17.80
2015,09,29,13,41,17.70
2015,09,29,13,42,17.70
2015,09,29,13,43,17.80
2015,09,29,13,44,17.80
2015,09,29,13,45,17.80
2015,09,29,13,46,17.80
2015,09,29,13,47,17.80
2015,09,29,13,48,17.80
2015,09,29,13,49,17.90
2015,09,29,13,50,18.00
2015,09,29,13,51,18.10
2015,09,29,13,52,18.10
2015,09,29,13,53,18.10
2015,09,29,13,54,18.10
2015,09,29,13,55,18.10
2015,09,29,13,56,18.10
2015,09,29,13,57,18.10
2015,09,29,13,58,18.10
2015,09,29,13,59,18.10
2015,09,29,14,00,18.10
2015,09,29,14,01,18.10
2015,09,29,14,02,18.10
2015,09,29,14,03,18.10
2015,09,29,14,04,18.00
2015,09,29,14,05,18.00
2015,09,29,14,06,18.00
2015,09,29,14,07,18.00
2015,09,29,14,08,18.00
2015,09,29,14,09,18.00
2015,09,29,14,10,17.90
2015,09,29,14,11,17.90
2015,09,29,14,12,17.90
2015,09,29,14,13,17.90
2015,09,29,14,14,17.90
2015,09,29,14,15,17.90
2015,09,29,14,16,17.90
2015,09,29,14,17,17.90
2015,09,29,14,18,17.90
2015,09,29,14,19,18.00
2015,09,29,14,20,17.90
2015,09,29,14,21,18.00
2015,09,29,14,22,18.10
2015,09,29,14,23,18.20
2015,09,29,14,24,18.20
2015,09,29,14,25,18.30
2015,09,29,14,26,18.30
2015,09,29,14,27,18.40
2015,09,29,14,28,18.40
2015,09,29,14,29,18.50
2015,09,29,14,30,18.60
2015,09,29,14,31,18.70
2015,09,29,14,32,18.80
2015,09,29,14,33,18.80
2015,09,29,14,34,18.90
2015,09,29,14,35,19.00
2015,09,29,14,36,19.00
2015,09,29,14,37,19.00
2015,09,29,14,38,19.10
2015,09,29,14,39,19.10
2015,09,29,14,40,19.20
2015,09,29,14,41,19.30
2015,09,29,14,42,19.40
2015,09,29,14,43,19.50
2015,09,29,14,44,19.60
2015,09,29,14,45,19.60
2015,09,29,14,46,19.70
2015,09,29,14,47,19.60
2015,09,29,14,48,19.50
2015,09,29,14,49,19.40
2015,09,29,14,50,19.40
2015,09,29,14,51,19.40
2015,09,29,14,52,19.40
2015,09,29,14,53,19.50
2015,09,29,14,54,19.60
2015,09,29,14,55,19.70
2015,09,29,14,56,19.80
2015,09,29,14,57,19.80
2015,09,29,14,58,19.80
2015,09,29,14,59,19.80
2015,09,29,15,00,19.80
2015,09,29,15,01,19.80
2015,09,29,15,02,19.70
2015,09,29,15,03,19.60
2015,09,29,15,04,19.50
2015,09,29,15,05,19.40
2015,09,29,15,06,19.50
2015,09,29,15,07,19.50
2015,09,29,15,08,19.60
2015,09,29,15,09,19.70
2015,09,29,15,10,19.80
2015,09,29,15,11,19.80
2015,09,29,15,12,19.80
2015,09,29,15,13,19.80
2015,09,29,15,14,19.90
2015,09,29,15,15,19.90
2015,09,29,15,16,19.90
2015,09,29,15,17,19.90
2015,09,29,15,18,19.80
2015,09,29,15,19,19.80
2015,09,29,15,20,19.90
2015,09,29,15,21,19.90
2015,09,29,15,22,20.00
2015,09,29,15,23,20.00
2015,09,29,15,24,19.90
2015,09,29,15,25,19.80
2015,09,29,15,26,19.70
2015,09,29,15,27,19.70
2015,09,29,15,28,19.60
2015,09,29,15,29,19.60
2015,09,29,15,30,19.50
2015,09,29,15,31,19.40
2015,09,29,15,32,19.30
2015,09,29,15,33,19.30
2015,09,29,15,34,19.30
2015,09,29,15,35,19.30
2015,09,29,15,36,19.40
2015,09,29,15,37,19.30
2015,09,29,15,38,19.30
2015,09,29,15,39,19.40
2015,09,29,15,40,19.40
2015,09,29,15,41,19.50
2015,09,29,15,42,19.50
2015,09,29,15,43,19.60
2015,09,29,15,44,19.60
2015,09,29,15,45,19.70
2015,09,29,15,46,19.70
2015,09,29,15,47,19.70
2015,09,29,15,48,19.70
2015,09,29,15,49,19.70
2015,09,29,15,50,19.70
2015,09,29,15,51,19.70
2015,09,29,15,52,19.70
2015,09,29,15,53,19.80
2015,09,29,15,54,19.80
2015,09,29,15,55,19.80
2015,09,29,15,56,19.80
2015,09,29,15,57,19.80
2015,09,29,15,58,19.80
2015,09,29,15,59,19.80
2015,09,29,16,00,19.70
2015,09,29,16,01,19.60
2015,09,29,16,02,19.50
2015,09,29,16,03,19.40
2015,09,29,16,04,19.30
2015,09,29,16,05,19.30
2015,09,29,16,06,19.30
2015,09,29,16,07,19.20
2015,09,29,16,08,19.20
2015,09,29,16,09,19.20
2015,09,29,16,10,19.20
2015,09,29,16,11,19.20
2015,09,29,16,12,19.20
2015,09,29,16,13,19.10
2015,09,29,16,14,19.10
2015,09,29,16,15,19.10
2015,09,29,16,16,19.20
2015,09,29,16,17,19.20
2015,09,29,16,18,19.20
2015,09,29,16,19,19.20
2015,09,29,16,20,19.10
2015,09,29,16,21,19.10
2015,09,29,16,22,19.00
2015,09,29,16,23,19.00
2015,09,29,16,24,18.90
2015,09,29,16,25,18.90
2015,09,29,16,26,18.90
2015,09,29,16,27,18.90
2015,09,29,16,28,18.90
2015,09,29,16,29,18.90
2015,09,29,16,30,18.80
2015,09,29,16,31,18.80
2015,09,29,16,32,18.80
2015,09,29,16,33,18.80
2015,09,29,16,34,18.80
2015,09,29,16,35,18.80
2015,09,29,16,36,18.80
2015,09,29,16,37,18.80
2015,09,29,16,38,18.80
2015,09,29,16,39,18.80
2015,09,29,16,40,18.80
2015,09,29,16,41,18.90
2015,09,29,16,42,19.00
2015,09,29,16,43,19.10
2015,09,29,16,44,19.20
2015,09,29,16,45,19.30
2015,09,29,16,46,19.30
2015,09,29,16,47,19.40
2015,09,29,16,48,19.40
2015,09,29,16,49,19.40
2015,09,29,16,50,19.50
2015,09,29,16,51,19.50
2015,09,29,16,52,19.50
2015,09,29,16,53,19.50
2015,09,29,16,54,19.40
2015,09,29,16,55,19.40
2015,09,29,16,56,19.40
2015,09,29,16,57,19.40
2015,09,29,16,58,19.40
2015,09,29,16,59,19.40
2015,09,29,17,00,19.40
2015,09,29,17,01,19.40
2015,09,29,17,02,19.40
2015,09,29,17,03,19.40
2015,09,29,17,04,19.40
2015,09,29,17,05,19.40
2015,09,29,17,06,19.40
2015,09,29,17,07,19.40
2015,09,29,17,08,19.40
2015,09,29,17,09,19.40
2015,09,29,17,10,19.40
2015,09,29,17,11,19.40
2015,09,29,17,12,19.40
2015,09,29,17,13,19.40
2015,09,29,17,14,19.40
2015,09,29,17,15,19.40
2015,09,29,17,16,19.40
2015,09,29,17,17,19.50
2015,09,29,17,18,19.50
2015,09,29,17,19,19.60
2015,09,29,17,20,19.60
2015,09,29,17,21,19.70
2015,09,29,17,22,19.70
2015,09,29,17,23,19.80
2015,09,29,17,24,19.80
2015,09,29,17,25,19.80
2015,09,29,17,26,19.90
2015,09,29,17,27,19.90
2015,09,29,17,28,19.90
2015,09,29,17,29,19.90
2015,09,29,17,30,19.90
2015,09,29,17,31,19.90
2015,09,29,17,32,19.90
2015,09,29,17,33,19.90
2015,09,29,17,34,19.90
2015,09,29,17,35,19.90
2015,09,29,17,36,19.90
2015,09,29,17,37,19.90
2015,09,29,17,38,19.90
2015,09,29,17,39,19.90
2015,09,29,17,40,19.90
2015,09,29,17,41,19.90
2015,09,29,17,42,19.90
2015,09,29,17,43,19.80
2015,09,29,17,44,19.70
2015,09,29,17,45,19.60
2015,09,29,17,46,19.50
2015,09,29,17,47,19.40
2015,09,29,17,48,19.30